Total_Precipitation_Accumulation
0.05 0.04 0.03 0.02 0.02 0.02 0.02 0.02 0.01 0.00 0.00 0.01 0.01 0.01 0.01 0.00 0.00 0.00 0.00 0.01 0.01 0.01 0.01 0.00 0.01 0.01 0.00 0.01 0.01 0.00 0.00 0.00 0.00 0.00 0.00 0.00 0.00 0.00 0.00 0.00 0.00 0.00 0.00 0.00 0.00 0.00 0.01 0.01 0.01 0.00 0.00 0.00 0.00 0.01 0.01 0.05 0.10 0.47 1.30 0.88 1.63 1.48 1.16 0.93 1.26 0.51 0.95 2.19 1.49 2.17 2.00 1.50 0.87 0.75 1.55 1.39 1.87 1.49 0.75 0.75 0.18 0.24 0.11 0.06 0.03 0.05 0.03 0.03
0.04 0.04 0.02 0.01 0.01 0.01 0.02 0.01 0.01 0.01 0.00 0.00 0.01 0.01 0.01 0.00 0.00 0.00 0.01 0.01 0.00 0.00 0.01 0.01 0.01 0.01 0.01 0.01 0.00 0.00 0.01 0.00 0.00 0.00 0.00 0.00 0.00 0.00 0.00 0.00 0.00 0.00 0.00 0.00 0.00 0.00 0.00 0.01 0.00 0.00 0.00 0.01 0.00 0.00 0.00 0.09 0.06 0.54 0.82 1.07 2.12 0.60 1.14 0.76 0.61 0.60 1.05 1.63 1.57 2.01 1.12 1.67 1.24 1.01 0.78 1.06 0.92 0.76 0.76 0.48 0.33 0.20 0.06 0.05 0.04 0.04 0.03 0.03
0.03 0.03 0.01 0.00 0.01 0.01 0.01 0.01 0.01 0.01 0.01 0.00 0.01 0.01 0.00 0.00 0.00 0.01 0.00 0.00 0.01 0.01 0.01 0.01 0.01 0.01 0.00 0.01 0.00 0.00 0.01 0.00 0.00 0.00 0.00 0.00 0.00 0.00 0.00 0.00 0.00 0.00 0.00 0.00 0.00 0.00 0.00 0.00 0.00 0.00 0.00 0.00 0.00 0.01 0.00 0.22 0.06 0.52 0.48 1.36 1.56 0.76 0.78 0.43 0.30 0.72 0.46 0.61 0.91 1.05 1.29 1.63 1.69 1.88 1.21 1.59 0.62 0.98 0.59 0.33 0.21 0.11 0.09 0.09 0.06 0.03 0.03 0.03
0.03 0.02 0.01 0.01 0.01 0.01 0.01 0.01 0.01 0.01 0.01 0.01 0.01 0.01 0.01 0.00 0.01 0.00 0.00 0.00 0.00 0.00 0.01 0.01 0.01 0.01 0.00 0.00 0.00 0.00 0.00 0.00 0.00 0.00 0.00 0.00 0.00 0.00 0.00 0.00 0.00 0.00 0.00 0.00 0.00 0.00 0.00 0.00 0.00 0.00 0.00 0.00 0.00 0.00 0.01 0.09 0.09 0.52 0.46 0.77 1.22 0.69 0.70 0.55 0.35 0.58 0.40 0.74 0.66 1.06 1.11 1.42 1.33 1.95 1.66 1.13 1.05 1.49 1.30 0.35 0.23 0.09 0.11 0.04 0.02 0.03 0.02 0.04
0.03 0.01 0.01 0.00 0.01 0.01 0.01 0.01 0.01 0.02 0.02 0.02 0.01 0.01 0.00 0.01 0.00 0.00 0.00 0.00 0.00 0.00 0.00 0.01 0.01 0.01 0.00 0.00 0.00 0.00 0.00 0.00 0.00 0.00 0.00 0.00 0.00 0.00 0.00 0.00 0.00 0.00 0.00 0.00 0.00 0.00 0.00 0.00 0.00 0.00 0.00 0.00 0.00 0.00 0.00 0.01 0.02 0.13 0.49 0.78 0.19 0.46 0.29 0.43 0.19 0.16 0.39 0.41 0.65 1.15 1.42 1.94 1.27 1.40 1.95 0.72 1.38 1.69 1.22 0.88 0.55 0.22 0.03 0.02 0.01 0.02 0.02 0.02
0.02 0.01 0.01 0.01 0.01 0.01 0.01 0.01 0.01 0.01 0.01 0.01 0.01 0.00 0.00 0.01 0.00 0.00 0.00 0.00 0.00 0.00 0.00 0.01 0.02 0.01 0.01 0.00 0.00 0.00 0.00 0.00 0.00 0.00 0.00 0.00 0.00 0.00 0.00 0.00 0.00 0.00 0.00 0.00 0.00 0.00 0.00 0.00 0.00 0.00 0.00 0.00 0.00 0.01 0.00 0.01 0.17 0.17 0.19 0.06 0.08 0.14 0.98 0.26 0.14 0.25 0.13 0.46 1.28 0.80 1.25 0.76 0.93 1.55 1.16 0.62 2.09 1.63 1.10 0.48 0.48 0.20 0.04 0.03 0.02 0.02 0.02 0.01
0.02 0.01 0.01 0.01 0.01 0.01 0.00 0.00 0.01 0.00 0.01 0.00 0.00 0.00 0.01 0.01 0.00 0.00 0.00 0.00 0.00 0.00 0.00 0.01 0.01 0.01 0.00 0.00 0.00 0.00 0.00 0.00 0.00 0.00 0.00 0.00 0.00 0.00 0.00 0.00 0.00 0.00 0.00 0.00 0.00 0.00 0.00 0.00 0.00 0.00 0.00 0.00 0.00 0.00 0.00 0.01 0.10 0.14 0.76 0.02 0.12 0.29 0.23 0.15 0.09 0.02 0.04 0.27 0.90 1.21 0.53 1.13 0.89 1.41 1.09 1.35 1.14 1.53 0.73 0.56 0.24 0.23 0.13 0.02 0.02 0.03 0.02 0.01
0.02 0.01 0.01 0.01 0.01 0.01 0.01 0.00 0.00 0.00 0.00 0.01 0.01 0.01 0.00 0.00 0.00 0.00 0.00 0.00 0.00 0.00 0.00 0.01 0.01 0.00 0.00 0.00 0.00 0.00 0.00 0.00 0.00 0.00 0.00 0.00 0.00 0.00 0.00 0.00 0.00 0.00 0.00 0.00 0.00 0.00 0.00 0.00 0.00 0.00 0.00 0.00 0.00 0.00 0.00 0.00 0.00 0.11 0.30 0.03 0.06 0.05 0.22 0.13 0.08 0.03 0.05 0.50 0.46 0.74 0.74 1.45 1.17 1.88 1.08 1.30 0.86 0.45 0.69 0.33 0.26 0.16 0.11 0.01 0.03 0.01 0.02 0.04
0.01 0.01 0.01 0.01 0.01 0.01 0.01 0.01 0.00 0.00 0.00 0.00 0.00 0.00 0.00 0.00 0.00 0.00 0.00 0.00 0.00 0.00 0.00 0.01 0.00 0.00 0.01 0.00 0.00 0.00 0.00 0.00 0.00 0.00 0.00 0.00 0.00 0.00 0.00 0.00 0.00 0.00 0.00 0.00 0.00 0.00 0.00 0.00 0.00 0.00 0.00 0.00 0.00 0.00 0.00 0.01 0.01 0.00 0.06 0.20 0.04 0.01 0.04 0.29 0.19 0.02 0.06 0.61 0.80 0.47 1.74 1.77 1.27 2.02 1.44 1.52 0.98 0.57 0.36 0.32 0.21 0.08 0.07 0.02 0.02 0.01 0.01 0.02
0.01 0.01 0.01 0.01 0.01 0.01 0.01 0.01 0.00 0.01 0.00 0.00 0.00 0.00 0.00 0.00 0.00 0.00 0.00 0.00 0.00 0.00 0.01 0.01 0.00 0.00 0.00 0.00 0.00 0.00 0.00 0.00 0.00 0.00 0.00 0.00 0.00 0.00 0.00 0.00 0.00 0.00 0.00 0.00 0.00 0.00 0.00 0.00 0.00 0.00 0.00 0.00 0.00 0.00 0.00 0.00 0.01 0.00 0.00 0.02 0.12 0.04 0.06 0.33 0.24 0.51 0.68 0.72 0.88 0.94 0.67 1.65 1.14 0.87 1.37 1.24 0.89 0.60 0.48 0.22 0.37 0.26 0.05 0.02 0.00 0.01 0.02 0.01
0.01 0.01 0.01 0.01 0.01 0.01 0.01 0.01 0.01 0.01 0.01 0.00 0.00 0.00 0.00 0.00 0.00 0.00 0.00 0.00 0.00 0.00 0.01 0.01 0.00 0.01 0.00 0.00 0.00 0.00 0.00 0.00 0.00 0.00 0.00 0.00 0.00 0.00 0.00 0.00 0.00 0.00 0.00 0.00 0.00 0.00 0.00 0.00 0.00 0.00 0.00 0.00 0.00 0.00 0.00 0.00 0.00 0.00 0.00 0.00 0.03 0.03 0.14 0.25 0.33 0.25 0.51 0.54 0.96 1.56 1.01 1.24 1.44 1.09 1.52 1.32 0.59 0.52 0.26 0.11 0.15 0.09 0.08 0.03 0.03 0.01 0.00 0.01
0.01 0.01 0.01 0.00 0.01 0.01 0.01 0.01 0.01 0.00 0.00 0.00 0.00 0.00 0.00 0.00 0.00 0.00 0.00 0.00 0.00 0.00 0.00 0.00 0.00 0.00 0.00 0.00 0.00 0.00 0.00 0.00 0.00 0.00 0.00 0.00 0.00 0.00 0.00 0.00 0.00 0.00 0.00 0.00 0.00 0.00 0.00 0.00 0.00 0.00 0.00 0.00 0.00 0.00 0.00 0.00 0.00 0.00 0.00 0.00 0.01 0.20 0.11 0.29 0.17 0.30 0.38 0.42 1.14 0.61 1.31 1.53 1.13 1.20 1.32 1.07 1.01 0.67 0.26 0.08 0.08 0.06 0.02 0.00 0.00 0.01 0.00 0.01
0.01 0.01 0.00 0.00 0.01 0.01 0.01 0.01 0.01 0.01 0.00 0.00 0.00 0.00 0.00 0.00 0.00 0.00 0.00 0.00 0.00 0.00 0.01 0.00 0.01 0.00 0.00 0.00 0.00 0.00 0.00 0.00 0.00 0.00 0.00 0.00 0.00 0.00 0.00 0.00 0.00 0.00 0.00 0.00 0.00 0.00 0.00 0.00 0.00 0.00 0.00 0.00 0.00 0.00 0.00 0.00 0.00 0.00 0.00 0.00 0.00 0.22 0.17 0.13 0.87 1.35 0.30 0.34 0.51 0.74 1.33 0.98 0.85 0.99 1.45 1.59 0.93 0.52 0.33 0.09 0.13 0.09 0.06 0.03 0.00 0.00 0.00 0.01
0.01 0.00 0.00 0.01 0.00 0.01 0.01 0.00 0.00 0.01 0.00 0.00 0.00 0.00 0.00 0.00 0.00 0.00 0.00 0.00 0.00 0.01 0.00 0.00 0.00 0.00 0.00 0.00 0.00 0.00 0.00 0.00 0.00 0.00 0.00 0.00 0.00 0.00 0.00 0.00 0.00 0.00 0.00 0.00 0.00 0.00 0.00 0.00 0.00 0.00 0.00 0.00 0.00 0.00 0.00 0.00 0.00 0.00 0.00 0.00 0.01 0.02 0.12 0.69 1.51 0.80 0.58 0.19 0.42 0.58 1.25 1.32 0.89 1.31 1.30 1.34 0.93 0.55 0.42 0.32 0.11 0.18 0.06 0.02 0.00 0.00 0.00 0.00
0.01 0.00 0.00 0.00 0.01 0.01 0.01 0.01 0.00 0.00 0.00 0.00 0.00 0.00 0.00 0.00 0.00 0.00 0.00 0.00 0.00 0.00 0.00 0.01 0.00 0.00 0.00 0.00 0.00 0.00 0.00 0.00 0.00 0.00 0.00 0.00 0.00 0.00 0.00 0.00 0.00 0.00 0.00 0.00 0.00 0.00 0.00 0.00 0.00 0.00 0.00 0.00 0.00 0.00 0.00 0.00 0.00 0.00 0.00 0.01 0.00 0.02 0.09 0.50 0.63 0.97 0.28 0.16 0.29 0.36 0.89 1.20 0.97 0.82 1.02 0.66 0.72 0.79 0.91 0.52 0.15 0.20 0.18 0.03 0.01 0.01 0.01 0.01
0.00 0.00 0.00 0.01 0.01 0.01 0.00 0.00 0.00 0.00 0.00 0.00 0.00 0.00 0.00 0.00 0.00 0.00 0.00 0.00 0.00 0.00 0.01 0.00 0.00 0.00 0.00 0.00 0.00 0.00 0.00 0.00 0.00 0.00 0.00 0.00 0.00 0.00 0.00 0.00 0.00 0.00 0.00 0.00 0.00 0.00 0.00 0.00 0.00 0.00 0.00 0.00 0.00 0.00 0.00 0.00 0.00 0.00 0.00 0.10 0.02 0.00 0.02 0.02 0.19 0.49 0.27 0.10 0.26 0.73 1.02 0.80 0.99 0.71 1.03 0.99 1.08 1.01 0.61 0.83 0.75 0.19 0.43 0.14 0.05 0.01 0.01 0.01
0.00 0.00 0.00 0.01 0.01 0.01 0.00 0.00 0.00 0.00 0.00 0.00 0.00 0.00 0.00 0.00 0.00 0.00 0.00 0.00 0.01 0.00 0.00 0.00 0.00 0.00 0.00 0.00 0.00 0.00 0.00 0.00 0.00 0.00 0.00 0.00 0.00 0.00 0.00 0.00 0.00 0.00 0.00 0.00 0.00 0.00 0.00 0.00 0.00 0.00 0.00 0.00 0.00 0.00 0.00 0.00 0.00 0.00 0.00 0.01 0.01 0.03 0.01 0.01 0.08 0.09 0.36 0.03 0.22 0.15 0.40 1.08 0.87 0.80 1.55 0.94 0.91 0.97 1.42 0.76 0.38 0.52 0.29 0.07 0.03 0.02 0.02 0.02
0.00 0.00 0.00 0.00 0.01 0.01 0.00 0.00 0.00 0.00 0.00 0.00 0.00 0.00 0.00 0.00 0.00 0.00 0.00 0.00 0.00 0.00 0.00 0.00 0.00 0.00 0.00 0.00 0.00 0.00 0.00 0.00 0.00 0.00 0.00 0.00 0.00 0.00 0.00 0.00 0.00 0.00 0.00 0.00 0.00 0.00 0.00 0.00 0.00 0.00 0.00 0.00 0.00 0.00 0.00 0.00 0.00 0.00 0.00 0.00 0.01 0.00 0.00 0.02 0.04 0.29 0.04 0.04 0.23 0.50 0.37 0.58 0.57 0.63 0.95 0.76 1.20 1.15 0.59 0.53 0.53 0.16 0.60 0.22 0.01 0.08 0.03 0.02
0.00 0.00 0.00 0.01 0.01 0.01 0.00 0.00 0.00 0.00 0.01 0.00 0.00 0.00 0.00 0.00 0.00 0.00 0.00 0.00 0.00 0.00 0.00 0.00 0.00 0.00 0.00 0.00 0.00 0.00 0.00 0.00 0.00 0.00 0.00 0.00 0.00 0.00 0.00 0.00 0.00 0.00 0.00 0.00 0.00 0.00 0.00 0.00 0.00 0.00 0.00 0.00 0.00 0.00 0.00 0.00 0.00 0.00 0.00 0.00 0.01 0.02 0.00 0.03 0.01 0.00 0.00 0.03 0.09 0.58 0.68 0.79 0.56 0.48 0.83 0.90 1.11 0.73 1.15 1.33 0.83 0.65 0.57 0.44 0.32 0.22 0.04 0.01
0.00 0.01 0.00 0.00 0.00 0.01 0.00 0.00 0.00 0.00 0.01 0.00 0.00 0.00 0.00 0.00 0.00 0.00 0.00 0.00 0.00 0.00 0.00 0.00 0.00 0.00 0.00 0.00 0.00 0.00 0.00 0.00 0.00 0.00 0.00 0.00 0.00 0.00 0.00 0.00 0.00 0.00 0.00 0.00 0.00 0.00 0.00 0.00 0.00 0.00 0.00 0.00 0.00 0.00 0.00 0.00 0.00 0.00 0.00 0.00 0.00 0.00 0.01 0.00 0.01 0.00 0.01 0.05 0.09 0.55 0.54 0.47 0.52 0.39 0.34 0.25 0.63 0.59 0.69 0.93 0.54 0.79 0.53 0.32 0.45 0.14 0.02 0.05
0.00 0.00 0.00 0.00 0.00 0.00 0.00 0.00 0.00 0.00 0.01 0.00 0.00 0.00 0.00 0.00 0.00 0.00 0.00 0.00 0.00 0.00 0.00 0.00 0.00 0.00 0.00 0.00 0.00 0.00 0.00 0.00 0.00 0.00 0.00 0.00 0.00 0.00 0.00 0.00 0.00 0.00 0.00 0.00 0.00 0.00 0.00 0.00 0.00 0.00 0.00 0.00 0.00 0.00 0.00 0.00 0.00 0.00 0.00 0.00 0.00 0.00 0.01 0.00 0.01 0.00 0.01 0.04 0.13 0.04 0.13 0.14 0.21 0.33 0.60 0.49 0.46 0.74 0.61 0.98 0.72 0.31 0.43 0.43 0.15 0.28 0.45 0.08
0.00 0.00 0.00 0.00 0.00 0.00 0.00 0.00 0.00 0.00 0.01 0.00 0.00 0.00 0.00 0.00 0.00 0.00 0.00 0.00 0.00 0.00 0.00 0.00 0.00 0.00 0.00 0.00 0.00 0.00 0.00 0.00 0.00 0.00 0.00 0.00 0.00 0.00 0.00 0.00 0.00 0.00 0.00 0.00 0.00 0.00 0.00 0.00 0.00 0.00 0.00 0.00 0.00 0.00 0.00 0.00 0.00 0.00 0.00 0.00 0.00 0.00 0.00 0.00 0.00 0.00 0.02 0.00 0.08 0.17 0.10 0.08 0.18 0.41 0.65 0.62 0.18 0.29 0.44 0.63 0.51 0.55 0.76 0.91 0.54 0.35 0.22 0.24
0.00 0.00 0.00 0.00 0.00 0.00 0.00 0.00 0.00 0.01 0.00 0.00 0.00 0.00 0.00 0.00 0.00 0.00 0.00 0.00 0.00 0.00 0.00 0.00 0.00 0.00 0.00 0.00 0.00 0.00 0.00 0.00 0.00 0.00 0.00 0.00 0.00 0.00 0.00 0.00 0.00 0.00 0.00 0.00 0.00 0.00 0.00 0.00 0.00 0.00 0.00 0.00 0.00 0.00 0.00 0.00 0.00 0.00 0.00 0.00 0.01 0.00 0.01 0.13 0.03 0.00 0.01 0.03 0.67 0.38 0.26 0.33 0.32 0.26 0.69 0.86 0.49 0.80 0.59 1.10 1.79 0.97 1.43 0.74 0.49 0.37 0.25 0.05
0.00 0.00 0.00 0.00 0.00 0.00 0.00 0.00 0.01 0.00 0.00 0.00 0.00 0.00 0.00 0.00 0.00 0.00 0.00 0.00 0.00 0.00 0.00 0.00 0.00 0.00 0.00 0.00 0.00 0.00 0.00 0.00 0.00 0.00 0.00 0.00 0.00 0.00 0.00 0.00 0.00 0.00 0.00 0.00 0.00 0.00 0.00 0.00 0.00 0.00 0.00 0.00 0.00 0.00 0.00 0.00 0.00 0.00 0.00 0.00 0.00 0.00 0.00 0.00 0.02 0.05 0.06 0.02 0.05 0.24 0.16 0.10 0.12 0.15 0.40 0.74 1.59 1.57 1.38 0.91 1.87 1.59 0.93 0.55 0.43 0.31 0.21 0.35
0.00 0.00 0.00 0.00 0.00 0.00 0.00 0.00 0.00 0.00 0.00 0.00 0.00 0.00 0.00 0.00 0.00 0.00 0.00 0.00 0.00 0.00 0.00 0.00 0.00 0.00 0.00 0.00 0.00 0.00 0.00 0.00 0.00 0.00 0.00 0.00 0.00 0.00 0.00 0.00 0.00 0.00 0.00 0.00 0.00 0.00 0.00 0.00 0.00 0.00 0.00 0.00 0.00 0.00 0.00 0.00 0.00 0.00 0.00 0.00 0.00 0.00 0.00 0.00 0.01 0.01 0.05 0.05 0.02 0.01 0.08 0.06 0.04 0.05 0.18 0.45 1.24 0.61 0.59 0.52 0.58 0.97 0.55 0.41 0.21 0.30 0.30 0.31
0.00 0.00 0.00 0.00 0.00 0.00 0.00 0.00 0.00 0.00 0.00 0.00 0.00 0.00 0.00 0.00 0.00 0.00 0.00 0.00 0.00 0.00 0.00 0.00 0.00 0.00 0.00 0.00 0.00 0.00 0.00 0.00 0.00 0.00 0.00 0.00 0.00 0.00 0.00 0.00 0.00 0.00 0.00 0.00 0.00 0.00 0.00 0.00 0.00 0.00 0.00 0.00 0.00 0.00 0.00 0.00 0.00 0.00 0.00 0.00 0.00 0.00 0.00 0.01 0.00 0.00 0.02 0.03 0.02 0.01 0.10 0.11 0.02 0.08 0.06 0.11 0.39 0.32 0.62 0.46 0.73 0.55 0.57 0.42 0.15 0.18 0.19 0.15
0.00 0.00 0.00 0.00 0.00 0.00 0.00 0.00 0.00 0.00 0.00 0.00 0.00 0.00 0.00 0.00 0.00 0.00 0.00 0.02 0.02 0.00 0.00 0.00 0.00 0.00 0.00 0.00 0.00 0.00 0.00 0.00 0.00 0.00 0.00 0.00 0.00 0.00 0.00 0.00 0.00 0.00 0.00 0.00 0.00 0.00 0.00 0.00 0.00 0.00 0.00 0.00 0.00 0.00 0.00 0.00 0.00 0.00 0.00 0.00 0.00 0.00 0.00 0.00 0.00 0.00 0.01 0.00 0.02 0.02 0.00 0.07 0.07 0.07 0.15 0.05 0.15 0.28 0.46 0.44 0.33 0.32 0.37 0.60 0.24 0.17 0.16 0.17
0.00 0.00 0.00 0.00 0.00 0.01 0.00 0.00 0.00 0.00 0.00 0.00 0.00 0.00 0.00 0.00 0.00 0.00 0.00 0.01 0.00 0.00 0.00 0.00 0.00 0.00 0.00 0.00 0.00 0.00 0.00 0.00 0.00 0.00 0.00 0.00 0.00 0.00 0.00 0.00 0.00 0.00 0.00 0.00 0.00 0.00 0.00 0.00 0.00 0.00 0.00 0.00 0.00 0.00 0.00 0.00 0.00 0.00 0.00 0.00 0.00 0.00 0.00 0.00 0.01 0.01 0.00 0.01 0.11 0.01 0.00 0.03 0.01 0.11 0.04 0.03 0.12 0.39 0.48 0.26 0.13 0.27 0.23 0.30 0.27 0.33 0.74 0.59
0.00 0.00 0.00 0.00 0.00 0.00 0.00 0.00 0.00 0.00 0.00 0.00 0.00 0.00 0.00 0.00 0.00 0.00 0.01 0.14 0.00 0.00 0.00 0.00 0.00 0.00 0.00 0.00 0.00 0.00 0.00 0.00 0.00 0.00 0.00 0.00 0.00 0.00 0.00 0.00 0.00 0.00 0.00 0.00 0.00 0.00 0.00 0.00 0.00 0.00 0.00 0.00 0.00 0.00 0.00 0.00 0.00 0.00 0.00 0.00 0.00 0.00 0.00 0.00 0.00 0.01 0.02 0.01 0.01 0.00 0.01 0.04 0.06 0.04 0.06 0.07 0.43 0.35 0.32 0.28 0.16 0.21 0.33 0.31 0.30 0.39 0.44 0.26
0.00 0.00 0.00 0.00 0.00 0.00 0.00 0.00 0.00 0.00 0.00 0.00 0.00 0.00 0.00 0.00 0.00 0.02 0.02 0.05 0.00 0.00 0.00 0.00 0.00 0.00 0.00 0.00 0.00 0.00 0.00 0.00 0.00 0.00 0.00 0.00 0.00 0.00 0.00 0.00 0.00 0.00 0.00 0.00 0.00 0.00 0.00 0.00 0.00 0.00 0.00 0.00 0.00 0.00 0.00 0.00 0.00 0.00 0.00 0.00 0.00 0.00 0.00 0.00 0.00 0.00 0.01 0.00 0.00 0.00 0.01 0.00 0.14 0.02 0.03 0.04 0.17 0.09 0.12 0.25 0.25 0.40 0.20 0.14 0.23 0.22 0.27 0.26
0.00 0.00 0.00 0.00 0.00 0.00 0.00 0.00 0.00 0.00 0.00 0.00 0.00 0.00 0.00 0.00 0.01 0.11 0.05 0.00 0.00 0.00 0.00 0.00 0.00 0.00 0.00 0.00 0.00 0.00 0.00 0.00 0.00 0.00 0.00 0.00 0.00 0.00 0.00 0.00 0.00 0.00 0.00 0.00 0.00 0.00 0.00 0.00 0.00 0.00 0.00 0.00 0.00 0.00 0.00 0.00 0.00 0.00 0.00 0.00 0.00 0.00 0.00 0.00 0.00 0.00 0.02 0.00 0.00 0.00 0.00 0.02 0.06 0.04 0.10 0.05 0.04 0.08 0.06 0.16 0.03 0.30 0.34 0.32 0.08 0.14 0.18 0.27
0.00 0.00 0.00 0.00 0.00 0.01 0.00 0.00 0.00 0.00 0.00 0.00 0.00 0.00 0.00 0.05 0.01 0.10 0.06 0.00 0.02 0.00 0.01 0.00 0.00 0.00 0.00 0.00 0.00 0.00 0.00 0.00 0.00 0.00 0.00 0.00 0.00 0.00 0.00 0.00 0.00 0.00 0.01 0.00 0.00 0.00 0.00 0.00 0.00 0.00 0.00 0.00 0.00 0.00 0.00 0.00 0.00 0.00 0.00 0.00 0.00 0.00 0.00 0.02 0.00 0.03 0.01 0.00 0.00 0.00 0.00 0.03 0.02 0.02 0.01 0.01 0.03 0.01 0.00 0.05 0.03 0.01 0.11 0.24 0.16 0.15 0.12 0.22
0.00 0.00 0.00 0.00 0.00 0.00 0.00 0.00 0.00 0.00 0.00 0.00 0.00 0.00 0.04 0.18 0.16 0.07 0.02 0.00 0.01 0.00 0.00 0.00 0.01 0.00 0.00 0.00 0.00 0.00 0.00 0.00 0.00 0.00 0.00 0.00 0.00 0.00 0.00 0.00 0.00 0.00 0.03 0.01 0.00 0.00 0.00 0.00 0.00 0.00 0.00 0.00 0.00 0.00 0.00 0.00 0.00 0.00 0.00 0.00 0.00 0.00 0.01 0.01 0.00 0.00 0.00 0.00 0.00 0.00 0.00 0.01 0.04 0.04 0.05 0.01 0.03 0.01 0.00 0.01 0.00 0.01 0.01 0.08 0.05 0.06 0.24 0.17
0.00 0.00 0.00 0.00 0.00 0.00 0.00 0.00 0.00 0.00 0.00 0.00 0.00 0.00 0.03 0.07 0.09 0.01 0.01 0.00 0.00 0.00 0.00 0.01 0.00 0.00 0.00 0.01 0.00 0.00 0.03 0.00 0.00 0.00 0.00 0.00 0.00 0.00 0.00 0.00 0.00 0.00 0.00 0.02 0.03 0.00 0.01 0.00 0.00 0.00 0.00 0.00 0.00 0.00 0.00 0.00 0.00 0.00 0.00 0.00 0.00 0.00 0.00 0.00 0.00 0.00 0.00 0.00 0.00 0.01 0.00 0.00 0.04 0.28 0.07 0.00 0.01 0.00 0.00 0.00 0.00 0.01 0.00 0.00 0.08 0.02 0.12 0.55
0.00 0.00 0.00 0.00 0.00 0.00 0.00 0.00 0.00 0.00 0.00 0.00 0.00 0.14 0.12 0.08 0.03 0.06 0.05 0.00 0.00 0.00 0.00 0.00 0.00 0.00 0.00 0.00 0.00 0.00 0.00 0.00 0.00 0.00 0.00 0.00 0.00 0.00 0.00 0.00 0.00 0.00 0.00 0.00 0.00 0.00 0.00 0.00 0.00 0.00 0.00 0.00 0.00 0.00 0.00 0.00 0.00 0.00 0.00 0.00 0.00 0.00 0.00 0.02 0.00 0.00 0.00 0.00 0.01 0.00 0.06 0.08 0.14 0.01 0.07 0.08 0.00 0.03 0.01 0.00 0.00 0.01 0.02 0.06 0.10 0.05 0.14 0.36
0.00 0.00 0.00 0.00 0.00 0.00 0.00 0.00 0.00 0.00 0.00 0.00 0.06 0.13 0.15 0.03 0.02 0.00 0.00 0.00 0.00 0.01 0.00 0.00 0.00 0.00 0.00 0.00 0.00 0.00 0.00 0.00 0.00 0.00 0.00 0.00 0.00 0.02 0.00 0.00 0.01 0.00 0.00 0.00 0.02 0.02 0.00 0.01 0.00 0.00 0.00 0.00 0.00 0.00 0.00 0.00 0.00 0.00 0.00 0.00 0.00 0.00 0.01 0.00 0.00 0.00 0.00 0.00 0.00 0.00 0.02 0.01 0.00 0.04 0.15 0.21 0.17 0.17 0.06 0.01 0.01 0.01 0.00 0.00 0.01 0.07 0.04 0.18
0.00 0.00 0.00 0.00 0.00 0.00 0.00 0.00 0.00 0.00 0.00 0.03 0.07 0.25 0.03 0.00 0.00 0.00 0.00 0.00 0.00 0.00 0.00 0.00 0.00 0.01 0.00 0.00 0.00 0.00 0.00 0.00 0.00 0.00 0.03 0.00 0.00 0.00 0.00 0.00 0.00 0.00 0.00 0.00 0.00 0.00 0.00 0.00 0.00 0.00 0.00 0.00 0.00 0.00 0.00 0.00 0.00 0.00 0.00 0.00 0.00 0.00 0.00 0.00 0.00 0.00 0.00 0.00 0.01 0.00 0.04 0.01 0.07 0.17 0.52 0.29 0.05 0.10 0.23 0.00 0.00 0.00 0.01 0.02 0.01 0.01 0.02 0.04
0.00 0.00 0.00 0.00 0.00 0.00 0.00 0.00 0.00 0.00 0.01 0.10 0.08 0.01 0.00 0.01 0.00 0.00 0.00 0.00 0.00 0.00 0.00 0.07 0.00 0.00 0.01 0.00 0.01 0.01 0.00 0.00 0.00 0.00 0.00 0.00 0.01 0.00 0.00 0.00 0.00 0.00 0.00 0.00 0.00 0.00 0.00 0.00 0.00 0.00 0.00 0.00 0.00 0.00 0.00 0.00 0.00 0.00 0.00 0.00 0.00 0.00 0.00 0.00 0.00 0.00 0.00 0.00 0.03 0.00 0.04 0.03 0.02 0.03 0.02 0.02 0.06 0.04 0.04 0.05 0.01 0.01 0.00 0.01 0.00 0.02 0.02 0.02
0.00 0.00 0.00 0.00 0.00 0.00 0.00 0.00 0.00 0.00 0.06 0.15 0.12 0.18 0.02 0.03 0.00 0.00 0.00 0.00 0.00 0.00 0.01 0.04 0.04 0.00 0.00 0.00 0.00 0.01 0.01 0.01 0.00 0.00 0.01 0.00 0.01 0.00 0.00 0.00 0.00 0.00 0.00 0.00 0.00 0.00 0.00 0.00 0.01 0.00 0.00 0.00 0.00 0.00 0.00 0.00 0.00 0.00 0.00 0.00 0.00 0.00 0.00 0.00 0.00 0.01 0.00 0.00 0.00 0.30 0.37 0.26 0.06 0.15 0.26 0.08 0.22 0.17 0.33 0.23 0.14 0.00 0.01 0.00 0.00 0.01 0.02 0.06
0.00 0.00 0.00 0.00 0.00 0.00 0.00 0.00 0.00 0.01 0.07 0.22 0.13 0.05 0.02 0.02 0.00 0.00 0.00 0.00 0.00 0.00 0.06 0.04 0.00 0.01 0.00 0.00 0.00 0.01 0.01 0.02 0.01 0.01 0.00 0.01 0.00 0.00 0.00 0.00 0.00 0.00 0.00 0.00 0.00 0.00 0.00 0.01 0.01 0.00 0.00 0.00 0.00 0.00 0.00 0.00 0.00 0.00 0.00 0.00 0.00 0.00 0.00 0.00 0.00 0.00 0.01 0.02 0.00 0.04 0.11 0.23 0.27 0.61 0.47 0.53 0.87 0.42 0.61 0.15 0.10 0.02 0.01 0.01 0.01 0.03 0.01 0.04
0.00 0.00 0.01 0.00 0.00 0.00 0.00 0.00 0.03 0.04 0.06 0.16 0.02 0.06 0.01 0.01 0.00 0.00 0.00 0.00 0.02 0.00 0.00 0.00 0.00 0.01 0.00 0.00 0.00 0.00 0.01 0.02 0.01 0.03 0.01 0.00 0.00 0.01 0.00 0.00 0.00 0.00 0.00 0.00 0.00 0.00 0.00 0.00 0.00 0.01 0.00 0.00 0.00 0.00 0.00 0.00 0.00 0.00 0.00 0.00 0.00 0.00 0.00 0.00 0.00 0.00 0.00 0.00 0.00 0.02 0.07 0.04 0.14 0.12 0.28 0.91 0.33 0.43 0.46 0.08 0.13 0.06 0.03 0.01 0.01 0.01 0.03 0.01
0.00 0.05 0.00 0.00 0.00 0.00 0.00 0.02 0.03 0.01 0.02 0.07 0.10 0.01 0.01 0.01 0.01 0.01 0.01 0.02 0.03 0.07 0.01 0.00 0.00 0.00 0.00 0.00 0.00 0.00 0.01 0.01 0.01 0.03 0.02 0.03 0.00 0.00 0.00 0.00 0.00 0.00 0.00 0.00 0.00 0.01 0.00 0.00 0.00 0.00 0.00 0.00 0.00 0.00 0.00 0.00 0.00 0.00 0.00 0.00 0.00 0.00 0.00 0.00 0.00 0.00 0.00 0.00 0.00 0.04 0.04 0.09 0.07 0.04 0.05 0.36 0.26 0.31 0.37 0.37 0.27 0.18 0.23 0.31 0.21 0.26 0.14 0.36
0.00 0.00 0.00 0.00 0.00 0.00 0.00 0.04 0.01 0.02 0.03 0.03 0.00 0.04 0.01 0.05 0.03 0.04 0.02 0.02 0.03 0.07 0.02 0.01 0.02 0.02 0.00 0.00 0.00 0.00 0.00 0.01 0.02 0.03 0.04 0.03 0.02 0.00 0.00 0.00 0.00 0.00 0.00 0.00 0.00 0.00 0.00 0.01 0.02 0.00 0.00 0.00 0.00 0.00 0.00 0.00 0.00 0.00 0.00 0.00 0.00 0.00 0.00 0.00 0.00 0.01 0.00 0.09 0.02 0.06 0.04 0.10 0.03 0.22 0.54 0.52 0.67 0.53 0.39 0.76 0.48 0.33 0.54 0.32 0.12 0.57 0.63 0.50
0.00 0.00 0.00 0.00 0.00 0.00 0.02 0.05 0.02 0.00 0.01 0.01 0.03 0.03 0.01 0.04 0.02 0.06 0.09 0.10 0.11 0.05 0.06 0.04 0.01 0.03 0.02 0.01 0.01 0.01 0.05 0.04 0.04 0.03 0.05 0.05 0.04 0.01 0.00 0.00 0.00 0.00 0.00 0.00 0.01 0.01 0.00 0.00 0.01 0.01 0.04 0.00 0.00 0.00 0.00 0.00 0.00 0.00 0.00 0.00 0.00 0.00 0.00 0.00 0.00 0.02 0.01 0.00 0.01 0.03 0.19 0.07 0.13 0.08 0.11 0.11 0.52 0.57 0.33 0.16 0.08 0.12 0.21 0.25 0.30 0.22 0.43 0.48
0.02 0.00 0.00 0.00 0.00 0.00 0.07 0.02 0.02 0.03 0.01 0.01 0.01 0.03 0.06 0.08 0.06 0.03 0.03 0.09 0.05 0.07 0.06 0.12 0.09 0.04 0.05 0.08 0.04 0.02 0.03 0.04 0.07 0.06 0.05 0.06 0.06 0.03 0.01 0.01 0.01 0.00 0.00 0.00 0.00 0.00 0.01 0.02 0.05 0.07 0.03 0.01 0.01 0.00 0.03 0.06 0.00 0.00 0.00 0.00 0.01 0.01 0.01 0.00 0.01 0.00 0.00 0.03 0.00 0.02 0.17 0.11 0.21 0.20 0.17 0.28 0.14 0.06 0.16 0.05 0.01 0.01 0.02 0.02 0.02 0.03 0.02 0.02
0.01 0.06 0.00 0.00 0.00 0.05 0.02 0.00 0.03 0.02 0.05 0.03 0.02 0.02 0.01 0.08 0.10 0.07 0.04 0.04 0.08 0.10 0.06 0.09 0.06 0.04 0.14 0.07 0.09 0.05 0.04 0.04 0.10 0.13 0.11 0.11 0.08 0.06 0.04 0.02 0.02 0.01 0.01 0.00 0.01 0.00 0.00 0.00 0.00 0.00 0.08 0.09 0.31 0.13 0.01 0.00 0.02 0.00 0.00 0.00 0.01 0.00 0.01 0.01 0.00 0.01 0.00 0.12 0.04 0.06 0.00 0.06 0.04 0.21 0.29 0.18 0.40 0.03 0.08 0.34 0.05 0.02 0.02 0.02 0.02 0.02 0.02 0.03
0.16 0.08 0.01 0.02 0.03 0.09 0.01 0.05 0.05 0.06 0.10 0.10 0.06 0.04 0.05 0.04 0.04 0.07 0.09 0.13 0.21 0.11 0.08 0.12 0.20 0.11 0.18 0.12 0.20 0.05 0.03 0.04 0.06 0.09 0.14 0.13 0.13 0.08 0.06 0.04 0.03 0.01 0.03 0.01 0.01 0.00 0.00 0.00 0.00 0.00 0.00 0.03 0.01 0.01 0.00 0.00 0.00 0.00 0.00 0.01 0.01 0.00 0.01 0.03 0.01 0.05 0.01 0.00 0.02 0.01 0.06 0.07 0.05 0.04 0.04 0.22 0.30 0.15 0.01 0.02 0.03 0.08 0.01 0.01 0.04 0.03 0.02 0.02
0.25 0.09 0.05 0.43 0.16 0.08 0.05 0.08 0.07 0.09 0.11 0.10 0.10 0.17 0.05 0.05 0.03 0.06 0.06 0.10 0.14 0.37 0.20 0.33 0.20 0.11 0.20 0.15 0.06 0.13 0.12 0.06 0.07 0.19 0.18 0.17 0.09 0.10 0.09 0.10 0.05 0.06 0.03 0.01 0.00 0.02 0.03 0.00 0.00 0.01 0.01 0.03 0.02 0.01 0.01 0.00 0.00 0.00 0.00 0.01 0.00 0.00 0.04 0.00 0.00 0.00 0.02 0.04 0.14 0.06 0.03 0.08 0.03 0.04 0.02 0.03 0.04 0.04 0.04 0.06 0.01 0.04 0.02 0.00 0.00 0.02 0.02 0.02
0.10 0.08 0.05 0.12 0.21 0.11 0.10 0.09 0.04 0.11 0.06 0.06 0.09 0.10 0.12 0.05 0.05 0.03 0.02 0.08 0.11 0.18 0.21 0.24 0.22 0.18 0.10 0.09 0.13 0.22 0.15 0.13 0.17 0.23 0.20 0.21 0.15 0.16 0.14 0.17 0.10 0.06 0.09 0.03 0.02 0.00 0.01 0.02 0.00 0.00 0.00 0.01 0.01 0.00 0.00 0.00 0.00 0.00 0.00 0.00 0.00 0.00 0.00 0.00 0.00 0.00 0.01 0.02 0.00 0.03 0.10 0.14 0.32 0.18 0.04 0.02 0.01 0.02 0.01 0.04 0.26 0.01 0.02 0.01 0.00 0.00 0.02 0.03
0.22 0.33 0.50 0.17 0.19 0.11 0.10 0.09 0.10 0.04 0.07 0.17 0.13 0.08 0.15 0.12 0.08 0.04 0.03 0.21 0.17 0.34 0.22 0.20 0.16 0.23 0.17 0.16 0.14 0.20 0.13 0.07 0.18 0.15 0.10 0.09 0.10 0.11 0.18 0.16 0.24 0.16 0.09 0.07 0.02 0.07 0.00 0.03 0.00 0.02 0.04 0.01 0.03 0.02 0.00 0.00 0.00 0.00 0.00 0.00 0.01 0.00 0.00 0.00 0.00 0.00 0.00 0.01 0.05 0.06 0.07 0.27 0.12 0.21 0.27 0.12 0.01 0.00 0.01 0.00 0.26 0.06 0.01 0.01 0.01 0.00 0.01 0.01
0.38 0.49 0.89 0.75 0.43 0.14 0.24 0.09 0.20 0.14 0.15 0.11 0.19 0.20 0.09 0.13 0.08 0.05 0.04 0.08 0.14 0.32 0.22 0.13 0.13 0.10 0.09 0.11 0.12 0.18 0.15 0.04 0.03 0.04 0.04 0.04 0.11 0.17 0.21 0.34 0.14 0.20 0.19 0.13 0.05 0.08 0.00 0.02 0.00 0.02 0.02 0.04 0.01 0.05 0.03 0.03 0.00 0.00 0.00 0.00 0.00 0.00 0.00 0.02 0.06 0.02 0.00 0.01 0.01 0.07 0.04 0.14 0.10 0.07 0.07 0.05 0.05 0.01 0.00 0.05 0.06 0.65 0.01 0.00 0.00 0.00 0.01 0.01
0.89 0.74 0.58 0.92 0.66 0.25 0.19 0.10 0.13 0.21 0.12 0.13 0.26 0.24 0.19 0.24 0.04 0.06 0.12 0.22 0.17 0.25 0.19 0.11 0.15 0.10 0.10 0.11 0.16 0.13 0.06 0.02 0.00 0.00 0.00 0.01 0.02 0.03 0.05 0.08 0.09 0.12 0.21 0.21 0.08 0.13 0.06 0.10 0.02 0.01 0.02 0.04 0.02 0.06 0.12 0.04 0.07 0.03 0.00 0.00 0.00 0.00 0.00 0.00 0.03 0.03 0.03 0.01 0.01 0.01 0.22 0.03 0.01 0.01 0.08 0.07 0.04 0.04 0.09 0.02 0.06 0.48 0.26 0.01 0.01 0.01 0.02 0.01